Regional Weather Roundup
Issued by NWS

Home | Current Version | Previous Version | Graphics & Text | Print | Product List | Glossary On
Versions: 1 2 3 4 5 6 7 8 9 10 11 12 13 14 15 16 17 18 19 20 21 22 23 24 25 26 27
000
ASUS45 KPSR 240910
RWRAZ

ARIZONA HOURLY REGIONAL WEATHER ROUNDUP
NATIONAL WEATHER SERVICE PHOENIX AZ
200 AM MST TUE APR 24 2018

NOTE: FAIR INDICATES FEW OR NO CLOUDS BELOW 12,000 FEET WITH NO
SIGNIFICANT WEATHER AND/OR OBSTRUCTIONS TO VISIBILITY.

AZZ001>003-036-241000-
NORTHWEST ARIZONA

CITY           SKY/WX    TMP DP  RH WIND       PRES   REMARKS
BULLHEAD CITY  MOCLDY    79  23  12 SE5       29.84F
KINGMAN        MOCLDY    65  22  19 NW3       30.01F
$$

AZZ004>008-015-016-018-241000-
NORTH CENTRAL ARIZONA

CITY           SKY/WX    TMP DP  RH WIND       PRES   REMARKS
GRAND CANYON   PTCLDY    33  14  45 CALM      30.20F
WILLIAMS       PTCLDY    45  16  31 S7        30.19F
PRESCOTT       MOCLDY    55  23  28 S9        30.12F
FLAGSTAFF      PTCLDY    41  16  36 S3        30.22F
PAYSON         PTCLDY    55  16  21 CALM      30.13S
PAGE           MOCLDY    66  21  18 S5        30.04S
$$

AZZ009>014-017-241000-
NORTHEAST ARIZONA

CITY           SKY/WX    TMP DP  RH WIND       PRES   REMARKS
WINSLOW        PTCLDY    53  16  23 NW3       30.11S
SAINT JOHNS    CLEAR     54  18  24 W6        30.14F
WINDOW ROCK    CLEAR     48  13  24 CALM      30.17F
SHOW LOW       PTCLDY    45  16  31 S7        30.20F
$$

AZZ540-542>544-546-548-241000-
GREATER PHOENIX AREA

CITY           SKY/WX    TMP DP  RH WIND       PRES   REMARKS
PHOENIX        MOCLDY    78  26  14 W5        29.89S
BUCKEYE        MOCLDY    68  19  15 NE3       29.90F
LUKE AFB       CLEAR     69  35  28 CALM      29.88F
DEER VALLEY    PTCLDY    67  23  19 N3        29.91S
SCOTTSDALE     PTCLDY    71  38  29 NE3       29.93S
MESA-GATEWAY   PTCLDY    66  32  28 SE9       29.93S
$$

AZZ539-553-241000-
SOUTHWEST MARICOPA COUNTY AND PINAL COUNTY

CITY           SKY/WX    TMP DP  RH WIND       PRES   REMARKS
CASA GRANDE    NOT AVBL
$$

AZZ503-504-507>509-241000-
SOUTHEAST ARIZONA

CITY           SKY/WX    TMP DP  RH WIND       PRES   REMARKS
TUCSON         MOCLDY    66  25  21 SE7       30.02F
DAVIS-MONTHAN  MOCLDY    63  24  23 SE7       30.00F
NOGALES        PTCLDY    58  23  26 E3        30.08F
SIERRA VISTA   MOCLDY    62  16  17 SW6       30.12F
DOUGLAS        PTCLDY    60  20  21 N12       30.08F
SAFFORD        CLEAR     67  17  14 NW9       29.99S
$$

AZZ532-241000-
SOUTHWEST ARIZONA

CITY           SKY/WX    TMP DP  RH WIND       PRES   REMARKS
YUMA           CLEAR     70  38  31 W3        29.86F
$$

CAZ041-043-047-048-061-525>527-560>570-241000-
SOUTHERN CALIFORNIA

CITY           SKY/WX    TMP DP  RH WIND       PRES   REMARKS
DOWNTOWN L.A.  CLOUDY    55  52  89 CALM      30.00F FOG
L.A. AIRPORT   CLOUDY    56  53  90 S3        30.00F FOG
SAN DIEGO      MOCLDY    59  54  83 N3        30.01
BURBANK        CLEAR     57  53  86 CALM      29.99F
ONTARIO        MOCLDY    60  48  64 CALM      29.99F
RIVERSIDE      CLEAR     58  49  72 CALM      29.99F
PALM SPRINGS   PTCLDY    77  40  26 CALM      29.88F
EL CENTRO NAS  PTCLDY    74  27  17 W7        29.85F
IMPERIAL       PTCLDY    74  32  21 W5        29.84F
BLYTHE         PTCLDY    76  37  24 S7        29.86F
NEEDLES        MOCLDY    84  23  10 CALM      29.87S
$$

NVZ020-UTZ003-241000-
SOUTHERN NEVADA-UTAH

CITY           SKY/WX    TMP DP  RH WIND       PRES   REMARKS
LAS VEGAS      MOCLDY    76  23  14 S12       29.90S
SALT LAKE CITY CLEAR     44  37  76 SW5       30.22R
$$

NMZ009-TXZ055-241000-
NEW MEXICO-WEST TEXAS

CITY           SKY/WX    TMP DP  RH WIND       PRES   REMARKS
ALBUQUERQUE    CLEAR     54  23  30 SE8       30.08S
EL PASO        PTCLDY    65  26  23 S5        30.01S
$$


........................KEY........................
SKY/WX - SKY CONDITION/WEATHER
TMP    - TEMPERATURE IN FAHRENHEIT
DP     - DEW POINT IN FAHRENHEIT
RH     - RELATIVE HUMIDITY IN PERCENT
WIND   - DIRECTION AND SPEED IN MILES PER HOUR (MPH)
VRB    - VARIABLE WIND DIRECTION
PRES   - MEAN SEA LEVEL PRESSURE IN INCHES OF MERCURY
         F - FALLING PRESSURE   R - RISING PRESSURE
         S - STEADY PRESSURE
VSB    - VISIBILITY IN MILES
HX     - HEAT INDEX IN FAHRENHEIT
WCI    - WIND CHILL INDEX IN FAHRENHEIT
TC     - TEMPERATURE IN CELSIUS WHICH IS ALSO KNOWN AS
         TEMPERATURE IN CENTIGRADE
AFB    - AIR FORCE BASE
         LUKE AFB IS LUKE AIR FORCE BASE
         DAVIS-MONTHAN IS DAVIS-MONTHAN AIR FORCE BASE
NAS    - NAVAL AIR STATION
         EL CENTRO NAS IS EL CENTRO NAVAL AIR STATION
N/A    - NOT AVAILABLE





USA.gov is the U.S. government's official web portal to all federal, state and local government web resources and services.